Location: Newark
(25.4297°S, 49.2719°W)
Time: 14:37:55
(UTC+00:00)

Altair - All Passes

Search period start: 22 November 2019 00:00
Search period end: 02 December 2019 00:00
Orbit: 1502 x 1682 km, 47.2° (Epoch: 21 November)

Date Brightness Start Highest point End Pass type
(mag) Time Alt. Az. Time Alt. Az. Time Alt. Az.
22 Nov - 00:12:40 10° SW 00:22:43 76° SE 00:32:19 10° NE visible
22 Nov - 02:19:00 10° WSW 02:26:50 28° NW 02:34:25 10° N visible
22 Nov - 13:21:44 10° NNE 13:25:44 13° ENE 13:29:46 10° E daylight
22 Nov - 15:19:38 10° NNW 15:29:27 68° NE 15:39:32 10° SE daylight
22 Nov - 17:25:29 10° W 17:34:48 41° SSW 17:44:16 10° SE daylight
22 Nov - 19:35:19 10° SW 19:42:32 21° S 19:49:43 10° SE daylight
22 Nov - 21:42:50 10° SW 21:51:03 27° SSE 21:59:02 10° ESE daylight
22 Nov - 23:47:27 10° SW 23:57:30 70° SE 00:07:06 10° ENE visible
23 Nov - 01:53:29 10° WSW 02:01:44 31° NW 02:09:43 10° N visible
23 Nov - 12:58:35 10° NE 13:00:38 11° ENE 13:02:42 10° ENE daylight
23 Nov - 14:54:36 10° NNW 15:04:17 62° NE 15:14:15 10° SE daylight
23 Nov - 17:00:02 10° WNW 17:09:28 43° SSW 17:19:05 10° SE daylight
23 Nov - 19:09:45 10° SW 19:17:03 21° S 19:24:21 10° SE daylight
23 Nov - 21:17:34 10° SW 21:25:37 25° SSE 21:33:29 10° ESE daylight
23 Nov - 23:22:15 10° SW 23:32:16 64° SE 23:41:51 10° ENE visible
24 Nov - 01:28:00 10° WSW 01:36:38 35° NW 01:44:58 10° N visible
24 Nov - 14:29:36 10° NNW 14:39:07 56° NE 14:48:57 10° SE daylight
24 Nov - 16:34:37 10° WNW 16:44:09 47° SW 16:53:54 10° SE daylight
24 Nov - 18:44:09 10° WSW 18:51:34 22° S 18:59:01 10° SE daylight
24 Nov - 20:52:17 10° SW 21:00:11 24° SSE 21:07:55 10° ESE daylight
24 Nov - 22:57:04 10° SW 23:07:02 59° SE 23:16:34 10° ENE visible
25 Nov - 01:02:35 10° WSW 01:11:31 39° NW 01:20:09 10° NNE visible
25 Nov - 14:04:38 10° NNW 14:13:59 50° NE 14:23:37 10° ESE daylight
25 Nov - 16:09:14 10° WNW 16:18:51 50° SW 16:28:43 10° SE daylight
25 Nov - 18:18:33 10° WSW 18:26:06 23° SSW 18:33:41 10° SE daylight
25 Nov - 20:27:00 10° SW 20:34:44 24° SSE 20:42:21 10° ESE daylight
25 Nov - 22:31:53 10° SW 22:41:46 55° SE 22:51:17 10° ENE visible
26 Nov - 00:37:11 10° WSW 00:46:25 44° NW 00:55:18 10° NNE visible
26 Nov - 13:39:42 10° NNW 13:48:50 45° NE 13:58:16 10° ESE daylight
26 Nov - 15:43:52 10° WNW 15:53:34 54° SW 16:03:32 10° SE daylight
26 Nov - 17:52:57 10° WSW 18:00:39 24° SSW 18:08:23 10° SE daylight
26 Nov - 20:01:41 10° SW 20:09:17 23° SSE 20:16:46 10° ESE daylight
26 Nov - 22:06:41 10° SW 22:16:29 51° SE 22:25:56 10° ENE visible
27 Nov - 00:11:50 10° WSW 00:21:18 49° NW 00:30:24 10° NNE visible
27 Nov - 13:14:50 10° NNW 13:23:43 41° NE 13:32:52 10° ESE daylight
27 Nov - 15:18:33 10° WNW 15:28:17 59° SW 15:38:21 10° SE daylight
27 Nov - 17:27:21 10° WSW 17:35:11 24° SSW 17:43:06 10° SE daylight
27 Nov - 19:36:21 10° SW 19:43:49 22° S 19:51:11 10° ESE daylight
27 Nov - 21:41:30 10° SW 21:51:12 47° SE 22:00:34 10° ENE daylight
27 Nov - 23:46:30 10° WSW 23:56:10 54° NW 00:05:27 10° NNE visible
28 Nov - 12:50:00 10° N 12:58:36 36° NE 13:07:27 10° ESE daylight
28 Nov - 14:53:15 10° WNW 15:03:02 64° SW 15:13:09 10° SE daylight
28 Nov - 17:01:45 10° WSW 17:09:45 26° SSW 17:17:51 10° SE daylight
28 Nov - 19:10:59 10° SW 19:18:20 21° S 19:25:37 10° SE daylight
28 Nov - 21:16:19 10° SW 21:25:54 44° SSE 21:35:11 10° ENE daylight
28 Nov - 23:21:11 10° SW 23:31:01 60° NW 23:40:28 10° NNE visible
29 Nov - 12:25:13 10° N 12:33:29 33° NE 12:41:59 10° ESE daylight
29 Nov - 14:27:59 10° WNW 14:37:47 69° SW 14:47:57 10° SE daylight
29 Nov - 16:36:11 10° WSW 16:44:19 27° SSW 16:52:35 10° SE daylight
29 Nov - 18:45:36 10° SW 18:52:51 21° S 19:00:03 10° SE daylight
29 Nov - 20:51:07 10° SW 21:00:35 41° SSE 21:09:45 10° E daylight
29 Nov - 22:55:53 10° SW 23:05:52 66° NW 23:15:27 10° NNE visible
30 Nov - 01:06:04 10° W 01:09:30 12° WNW 01:12:53 10° NW visible
30 Nov - 12:00:29 10° N 12:08:23 29° NE 12:16:29 10° ESE daylight
30 Nov - 14:02:45 10° NW 14:12:34 75° SW 14:22:45 10° SE daylight
30 Nov - 16:10:37 10° WSW 16:18:54 28° SSW 16:27:21 10° SE daylight
30 Nov - 18:20:12 10° SW 18:27:22 21° S 18:34:30 10° SE daylight
30 Nov - 20:25:55 10° SW 20:35:15 38° SSE 20:44:19 10° E daylight
30 Nov - 22:30:37 10° SW 22:40:42 73° NW 22:50:24 10° NE visible
01 Dec - 00:39:37 10° W 00:44:24 15° WNW 00:49:08 10° NNW visible
01 Dec - 11:35:50 10° N 11:43:17 26° NE 11:50:55 10° ESE daylight
01 Dec - 13:37:32 10° NW 13:47:20 81° SW 13:57:32 10° SE daylight
01 Dec - 15:45:04 10° W 15:53:29 30° SSW 16:02:07 10° SE daylight
01 Dec - 17:54:46 10° SW 18:01:52 20° S 18:08:58 10° SE daylight
01 Dec - 20:00:44 10° SW 20:09:54 36° SSE 20:18:50 10° E daylight
01 Dec - 22:05:21 10° SW 22:15:32 79° NW 22:25:19 10° NE visible
